Regional Weather Roundup
Issued by NWS Albany, NY

Home | Current Version | Previous Version | Graphics & Text | Print | Product List | Glossary On
Versions: 1 2 3 4 5 6 7 8 9 10 11 12 13 14 15 16 17 18 19 20 21 22 23 24 25 26 27 28 29 30 31 32 33 34 35 36 37 38 39 40 41 42 43 44 45 46 47 48 49
000
ASUS41 KALY 310110
RWRALY

NEW YORK STATE HOURLY WEATHER ROUNDUP
NATIONAL WEATHER SERVICE ALBANY NY
900 PM EDT SUN AUG 30 2015

NOTE: "FAIR" INDICATES FEW OR NO CLOUDS BELOW 12,000 FEET WITH NO
SIGNIFICANT WEATHER AND/OR NO OBSTRUCTIONS TO VISIBILITY.

NYZ032-033-038>043-046>054-057>066-NYZ062>081-310200-
EAST


CITY           SKY/WX    TMP DP  RH WIND       PRES   REMARKS
ALBANY         PTCLDY    73  64  73 CALM      30.02R
GLENS FALLS    CLOUDY    70  64  81 CALM      30.02R
POUGHKEEPSIE   CLEAR     72  70  93 CALM      30.02R FOG
NEWBURGH       MOCLDY    77  68  73 CALM      30.05R
MONTGOMERY     PTCLDY    73  67  81 CALM      30.03S
WHITE PLAINS   PTCLDY    72  68  87 CALM      30.04R
ISLIP          MOCLDY    76  69  79 SW10      30.03R
NEW YORK CITY  MOCLDY    84  66  54 S9        30.02R
CENTRAL PARK   PTCLDY    83  64  52 VRB6      30.05R
$$

NYZ005>009-017-018-044>046-055-056-310200-
CENTRAL


CITY           SKY/WX    TMP DP  RH WIND       PRES   REMARKS
FULTON         CLEAR     65  61  87 CALM      30.04R
SYRACUSE       MOCLDY    72  66  81 CALM      30.03R
ROME           MOCLDY    70  64  81 CALM      30.05R
ELMIRA         CLOUDY    70  67  90 CALM      30.06R
BINGHAMTON     PTCLDY    68  64  87 MISG      30.09R
MONTICELLO     PTCLDY    72  66  83 SW3       30.10R
$$

NYZ026>034-041>043-310200-
NORTH


CITY           SKY/WX    TMP DP  RH WIND       PRES   REMARKS
WATERTOWN      PTCLDY    65  61  87 CALM      30.02S
FORT DRUM      NOT AVBL
MASSENA        PTCLDY    64  59  83 SW3       30.00R
SARANAC LAKE   CLOUDY    66  60  81 S3        30.05R
PLATTSBURGH    CLOUDY    70  66  87 W3        29.99R
$$

NYZ001>004-010>016-019>021-310200-
WEST


CITY           SKY/WX    TMP DP  RH WIND       PRES   REMARKS
NIAGARA FALLS  PTCLDY    71  65  81 S9        30.03R
BUFFALO        PTCLDY    72  64  76 SW6       30.04R
DUNKIRK        CLEAR     68  65  90 CALM      30.05R
JAMESTOWN      CLEAR     70  63  78 CALM      30.11R
WELLSVILLE     MOCLDY    71  63  75 W3        30.14R
ROCHESTER      PTCLDY    71  60  68 CALM      30.04R
PENN YAN       PTCLDY    68  65  90 CALM      30.07R
$$

             KEY
       WCI = WIND CHILL INDEX
       VSB = VISIBILITY
       HX  = HEAT INDEX
$$



USA.gov is the U.S. government's official web portal to all federal, state and local government web resources and services.